| time (UTC) | temp F | wind direction | speed knots | gust knots | rain 1hr in | rain 24hr in | rain mn in | humidity % | barometer mb |
| 20260831053739 | 59 | 309 | 0.0 | 0.0 | 0.00 | 0.00 | 0.00 | 75 | 1018.4 |
| 20260831053230 | 59 | 309 | 0.0 | 0.0 | 0.00 | 0.00 | 0.00 | 75 | 1018.5 |
| 20260831052737 | 59 | 309 | 0.0 | 0.0 | 0.00 | 0.00 | 0.00 | 75 | 1018.6 |
| 20260831052307 | 59 | 309 | 0.0 | 0.0 | 0.00 | 0.00 | 0.00 | 75 | 1018.6 |
| 20260831051739 | 59 | 309 | 0.0 | 0.0 | 0.00 | 0.00 | 0.00 | 75 | 1018.6 |
| 20260831051306 | 59 | 309 | 0.0 | 0.0 | 0.00 | 0.00 | 0.00 | 75 | 1018.6 |
| 20260831050721 | 60 | 309 | 0.0 | 0.0 | 0.00 | 0.00 | 0.00 | 75 | 1018.6 |
| 20260831050228 | 60 | 309 | 0.0 | 0.0 | 0.00 | 0.00 | 0.00 | 75 | 1018.8 |
| 20260831045735 | 60 | 309 | 0.0 | 0.0 | 0.00 | 0.00 | 0.00 | 74 | 1018.7 |
| 20260831045306 | 60 | 309 | 0.0 | 0.0 | 0.00 | 0.00 | 0.00 | 73 | 1018.7 |
| 20260831044737 | 61 | 309 | 0.0 | 0.0 | 0.00 | 0.00 | 0.00 | 72 | 1018.8 |
| 20260831044225 | 61 | 309 | 0.0 | 0.0 | 0.00 | 0.00 | 0.00 | 72 | 1018.7 |
| 20260831043731 | 61 | 309 | 0.0 | 0.0 | 0.00 | 0.00 | 0.00 | 71 | 1018.8 |
| 20260831043238 | 61 | 309 | 0.0 | 0.0 | 0.00 | 0.00 | 0.00 | 71 | 1018.7 |
| 20260831042729 | 61 | 309 | 0.0 | 0.0 | 0.00 | 0.00 | 0.00 | 71 | 1018.7 |
| 20260831042236 | 62 | 309 | 0.0 | 0.0 | 0.00 | 0.00 | 0.00 | 71 | 1018.8 |
| 20260831041722 | 62 | 309 | 0.0 | 0.0 | 0.00 | 0.00 | 0.00 | 69 | 1018.6 |
| 20260831041310 | 62 | 309 | 0.0 | 0.0 | 0.00 | 0.00 | 0.00 | 68 | 1018.8 |
| 20260831040725 | 63 | 309 | 0.0 | 0.0 | 0.00 | 0.00 | 0.00 | 68 | 1018.8 |
| 20260831040232 | 63 | 309 | 0.0 | 0.0 | 0.00 | 0.00 | 0.00 | 67 | 1018.8 |
| 20260831035739 | 63 | 309 | 0.0 | 0.0 | 0.00 | 0.00 | 0.00 | 66 | 1018.8 |
| 20260831035227 | 63 | 304 | 0.0 | 0.0 | 0.00 | 0.00 | 0.00 | 65 | 1018.9 |
| 20260831034753 | 64 | 304 | 0.0 | 0.0 | 0.00 | 0.00 | 0.00 | 64 | 1018.9 |
| 20260831034721 | 64 | 304 | 0.0 | 0.0 | 0.00 | 0.00 | 0.00 | 64 | 1018.9 |
| 20260831034230 | 64 | 304 | 0.0 | 1.7 | 0.00 | 0.00 | 0.00 | 63 | 1018.8 |
| 20260831033756 | 64 | 302 | 0.0 | 1.7 | 0.00 | 0.00 | 0.00 | 63 | 1018.8 |
| 20260831033231 | 64 | 302 | 0.0 | 1.7 | 0.00 | 0.00 | 0.00 | 63 | 1018.8 |
| 20260831032737 | 64 | 292 | 0.0 | 1.7 | 0.00 | 0.00 | 0.00 | 62 | 1018.6 |
| 20260831032300 | 64 | 292 | 0.0 | 1.7 | 0.00 | 0.00 | 0.00 | 62 | 1018.6 |
| 20260831031754 | 65 | 311 | 0.0 | 0.0 | 0.00 | 0.00 | 0.00 | 62 | 1018.6 |
| 20260831031722 | 65 | 311 | 0.0 | 0.0 | 0.00 | 0.00 | 0.00 | 62 | 1018.6 |
| 20260831031309 | 65 | 311 | 0.0 | 0.9 | 0.00 | 0.00 | 0.00 | 62 | 1018.6 |
| 20260831030724 | 65 | 311 | 0.0 | 1.7 | 0.00 | 0.00 | 0.00 | 60 | 1018.6 |
| 20260831030235 | 65 | 304 | 0.9 | 1.7 | 0.00 | 0.00 | 0.00 | 60 | 1018.7 |
| 20260831025722 | 66 | 293 | 0.0 | 1.7 | 0.00 | 0.00 | 0.00 | 60 | 1018.6 |
| 20260831025230 | 66 | 292 | 0.9 | 1.7 | 0.00 | 0.00 | 0.00 | 59 | 1018.7 |
| 20260831024736 | 66 | 323 | 0.0 | 2.6 | 0.00 | 0.00 | 0.00 | 59 | 1018.7 |
| 20260831024223 | 67 | 333 | 0.0 | 4.3 | 0.00 | 0.00 | 0.00 | 59 | 1018.8 |
| 20260831023730 | 67 | 316 | 1.7 | 4.3 | 0.00 | 0.00 | 0.00 | 58 | 1018.9 |
| 20260831023257 | 67 | 317 | 0.9 | 3.5 | 0.00 | 0.00 | 0.00 | 58 | 1018.8 |
| 20260831022753 | 67 | 292 | 1.7 | 3.5 | 0.00 | 0.00 | 0.00 | 57 | 1018.8 |
| 20260831022309 | 68 | 313 | 0.9 | 2.6 | 0.00 | 0.00 | 0.00 | 57 | 1018.9 |
| 20260831022238 | 68 | 313 | 0.9 | 2.6 | 0.00 | 0.00 | 0.00 | 57 | 1018.9 |
| 20260831021723 | 68 | 349 | 0.9 | 3.5 | 0.00 | 0.00 | 0.00 | 56 | 1018.9 |
| 20260831021230 | 68 | 288 | 1.7 | 3.5 | 0.00 | 0.00 | 0.00 | 54 | 1018.8 |
| 20260831020737 | 69 | 294 | 1.7 | 3.5 | 0.00 | 0.00 | 0.00 | 53 | 1019.1 |
| 20260831020305 | 70 | 305 | 0.0 | 1.7 | 0.00 | 0.00 | 0.00 | 53 | 1019.0 |
| 20260831015720 | 70 | 324 | 0.0 | 3.5 | 0.00 | 0.00 | 0.00 | 52 | 1019.1 |
| 20260831015232 | 70 | 336 | 0.9 | 3.5 | 0.00 | 0.00 | 0.00 | 51 | 1019.0 |
| 20260831014738 | 71 | 304 | 0.0 | 1.7 | 0.00 | 0.00 | 0.00 | 51 | 1019.1 |
| 20260831014225 | 71 | 327 | 0.0 | 1.7 | 0.00 | 0.00 | 0.00 | 51 | 1019.2 |
| 20260831013732 | 70 | 264 | 0.9 | 1.7 | 0.00 | 0.00 | 0.00 | 50 | 1019.2 |
| 20260831013239 | 71 | 320 | 0.0 | 2.6 | 0.00 | 0.00 | 0.00 | 50 | 1019.3 |
| 20260831012806 | 71 | 265 | 1.7 | 2.6 | 0.00 | 0.00 | 0.00 | 49 | 1019.4 |
| 20260831012734 | 71 | 265 | 1.7 | 2.6 | 0.00 | 0.00 | 0.00 | 49 | 1019.4 |
| 20260831012222 | 71 | 316 | 0.0 | 1.7 | 0.00 | 0.00 | 0.00 | 50 | 1019.4 |
| 20260831011728 | 71 | 318 | 0.9 | 4.3 | 0.00 | 0.00 | 0.00 | 49 | 1019.3 |
| 20260831011235 | 71 | 306 | 1.7 | 4.3 | 0.00 | 0.00 | 0.00 | 49 | 1019.3 |
| 20260831010722 | 72 | 266 | 0.9 | 2.6 | 0.00 | 0.00 | 0.00 | 49 | 1019.4 |
| 20260831010310 | 72 | 334 | 0.9 | 2.6 | 0.00 | 0.00 | 0.00 | 49 | 1019.5 |
| 20260831005725 | 72 | 332 | 0.9 | 3.5 | 0.00 | 0.00 | 0.00 | 50 | 1019.5 |
| 20260831005254 | 71 | 276 | 1.7 | 3.5 | 0.00 | 0.00 | 0.00 | 50 | 1019.5 |
| 20260831004732 | 71 | 296 | 0.9 | 5.2 | 0.00 | 0.00 | 0.00 | 50 | 1019.5 |
| 20260831004239 | 71 | 339 | 2.6 | 5.2 | 0.00 | 0.00 | 0.00 | 51 | 1019.6 |
| 20260831003721 | 72 | 252 | 1.7 | 3.5 | 0.00 | 0.00 | 0.00 | 50 | 1019.7 |
| 20260831003228 | 72 | 340 | 0.9 | 1.7 | 0.00 | 0.00 | 0.00 | 50 | 1019.7 |
| 20260831002735 | 71 | 50 | 0.0 | 2.6 | 0.00 | 0.00 | 0.00 | 51 | 1019.7 |
| 20260831002223 | 71 | 93 | 0.0 | 3.5 | 0.00 | 0.00 | 0.00 | 51 | 1019.8 |
| 20260831001729 | 71 | 252 | 2.6 | 3.5 | 0.00 | 0.00 | 0.00 | 51 | 1019.7 |
| 20260831001236 | 72 | 37 | 0.9 | 3.5 | 0.00 | 0.00 | 0.00 | 51 | 1019.8 |
| 20260831000738 | 71 | 355 | 0.9 | 3.5 | 0.00 | 0.00 | 0.00 | 51 | 1019.7 |
| 20260831000226 | 71 | 271 | 0.9 | 2.6 | 0.00 | 0.00 | 0.00 | 51 | 1019.9 |
| 20260830235735 | 71 | 302 | 0.9 | 3.5 | 0.00 | 0.00 | 0.00 | 53 | 1020.0 |
| 20260830235305 | 70 | 304 | 1.7 | 3.5 | 0.00 | 0.00 | 0.00 | 53 | 1019.9 |
| 20260830234738 | 70 | 277 | 0.9 | 1.7 | 0.00 | 0.00 | 0.00 | 54 | 1019.9 |
| 20260830234226 | 69 | 144 | 0.9 | 1.7 | 0.00 | 0.00 | 0.00 | 55 | 1020.0 |
| 20260830233732 | 69 | 191 | 0.0 | 1.7 | 0.00 | 0.00 | 0.00 | 56 | 1020.2 |
| 20260830233220 | 69 | 153 | 0.0 | 1.7 | 0.00 | 0.00 | 0.00 | 58 | 1020.2 |
| 20260830232727 | 69 | 121 | 0.9 | 1.7 | 0.00 | 0.00 | 0.00 | 54 | 1020.2 |
| 20260830232255 | 69 | 167 | 0.0 | 0.9 | 0.00 | 0.00 | 0.00 | 55 | 1020.1 |
| 20260830232223 | 69 | 167 | 0.0 | 0.9 | 0.00 | 0.00 | 0.00 | 55 | 1020.1 |
| 20260830231729 | 69 | 186 | 0.0 | 1.7 | 0.00 | 0.00 | 0.00 | 56 | 1020.1 |
| 20260830231236 | 70 | 273 | 0.9 | 1.7 | 0.00 | 0.00 | 0.00 | 55 | 1020.1 |
| 20260830230804 | 70 | 115 | 0.9 | 3.5 | 0.00 | 0.00 | 0.00 | 54 | 1020.2 |
| 20260830230239 | 70 | 136 | 1.7 | 3.5 | 0.00 | 0.00 | 0.00 | 53 | 1020.2 |
| 20260830225806 | 71 | 40 | 0.9 | 2.6 | 0.00 | 0.00 | 0.00 | 55 | 1020.1 |
| 20260830225734 | 71 | 40 | 0.9 | 2.6 | 0.00 | 0.00 | 0.00 | 55 | 1020.1 |
| 20260830225222 | 70 | 306 | 0.9 | 2.6 | 0.00 | 0.00 | 0.00 | 56 | 1020.2 |
| 20260830224732 | 70 | 38 | 0.9 | 4.3 | 0.00 | 0.00 | 0.00 | 56 | 1020.3 |
| 20260830224239 | 69 | 346 | 2.6 | 4.3 | 0.00 | 0.00 | 0.00 | 56 | 1020.4 |
| 20260830223806 | 69 | 52 | 0.9 | 5.2 | 0.00 | 0.00 | 0.00 | 56 | 1020.4 |
| 20260830223302 | 69 | 69 | 0.9 | 5.2 | 0.00 | 0.00 | 0.00 | 57 | 1020.5 |
| 20260830223230 | 69 | 69 | 0.9 | 5.2 | 0.00 | 0.00 | 0.00 | 57 | 1020.5 |
| 20260830222737 | 69 | 350 | 2.6 | 6.1 | 0.00 | 0.00 | 0.00 | 57 | 1020.6 |
| 20260830222306 | 69 | 251 | 1.7 | 5.2 | 0.00 | 0.00 | 0.00 | 56 | 1020.6 |
| 20260830222233 | 69 | 251 | 1.7 | 5.2 | 0.00 | 0.00 | 0.00 | 56 | 1020.6 |
| 20260830221759 | 69 | 251 | 0.9 | 1.7 | 0.00 | 0.00 | 0.00 | 55 | 1020.6 |
| 20260830221727 | 69 | 251 | 0.9 | 1.7 | 0.00 | 0.00 | 0.00 | 55 | 1020.6 |
| 20260830221234 | 69 | 217 | 0.0 | 1.7 | 0.00 | 0.00 | 0.00 | 55 | 1020.7 |
| 20260830220801 | 70 | 288 | 0.9 | 1.7 | 0.00 | 0.00 | 0.00 | 54 | 1020.6 |
| 20260830220236 | 70 | 292 | 0.9 | 3.5 | 0.00 | 0.00 | 0.00 | 54 | 1021.0 |
| 20260830215803 | 71 | 130 | 1.7 | 4.3 | 0.00 | 0.00 | 0.00 | 53 | 1020.7 |
| 20260830215731 | 71 | 130 | 1.7 | 4.3 | 0.00 | 0.00 | 0.00 | 53 | 1020.7 |
| 20260830215239 | 71 | 88 | 0.9 | 5.2 | 0.00 | 0.00 | 0.00 | 52 | 1020.9 |
| 20260830214725 | 71 | 143 | 1.7 | 7.0 | 0.00 | 0.00 | 0.00 | 51 | 1020.9 |
| 20260830214232 | 72 | 336 | 1.7 | 7.0 | 0.00 | 0.00 | 0.00 | 50 | 1020.9 |
| 20260830213739 | 72 | 136 | 0.9 | 3.5 | 0.00 | 0.00 | 0.00 | 54 | 1020.9 |
| 20260830213306 | 71 | 9 | 1.7 | 4.3 | 0.00 | 0.00 | 0.00 | 54 | 1021.0 |
| 20260830212721 | 70 | 276 | 1.7 | 4.3 | 0.00 | 0.00 | 0.00 | 54 | 1021.0 |
| 20260830212229 | 70 | 313 | 1.7 | 5.2 | 0.00 | 0.00 | 0.00 | 53 | 1020.9 |
| 20260830211739 | 69 | 263 | 2.6 | 5.2 | 0.00 | 0.00 | 0.00 | 53 | 1021.0 |
| 20260830211226 | 69 | 169 | 1.7 | 3.5 | 0.00 | 0.00 | 0.00 | 53 | 1021.2 |
| 20260830210733 | 70 | 265 | 0.9 | 3.5 | 0.00 | 0.00 | 0.00 | 55 | 1021.2 |
| 20260830210220 | 69 | 177 | 1.7 | 3.5 | 0.00 | 0.00 | 0.00 | 55 | 1021.5 |
| 20260830205727 | 69 | 351 | 0.9 | 3.5 | 0.00 | 0.00 | 0.00 | 57 | 1021.5 |
| 20260830205235 | 69 | 137 | 1.7 | 3.5 | 0.00 | 0.00 | 0.00 | 55 | 1021.5 |
| 20260830204721 | 68 | 121 | 0.9 | 3.5 | 0.00 | 0.00 | 0.00 | 57 | 1021.3 |
| 20260830204309 | 68 | 279 | 1.7 | 3.5 | 0.00 | 0.00 | 0.00 | 59 | 1021.4 |
| 20260830203805 | 67 | 88 | 1.7 | 5.2 | 0.00 | 0.00 | 0.00 | 59 | 1021.4 |
| 20260830203301 | 68 | 132 | 3.5 | 5.2 | 0.00 | 0.00 | 0.00 | 58 | 1021.4 |
| 20260830202736 | 67 | 313 | 1.7 | 7.0 | 0.00 | 0.00 | 0.00 | 59 | 1021.5 |
| 20260830202224 | 67 | 109 | 2.6 | 7.0 | 0.00 | 0.00 | 0.00 | 59 | 1021.6 |
| 20260830201730 | 68 | 274 | 3.5 | 6.1 | 0.00 | 0.00 | 0.00 | 58 | 1021.5 |
| 20260830201221 | 68 | 194 | 0.9 | 3.5 | 0.00 | 0.00 | 0.00 | 60 | 1021.5 |
| 20260830200728 | 67 | 17 | 1.7 | 7.0 | 0.00 | 0.00 | 0.00 | 61 | 1021.5 |
| 20260830200235 | 67 | 298 | 1.7 | 7.0 | 0.00 | 0.00 | 0.00 | 61 | 1021.5 |
| 20260830195722 | 67 | 49 | 1.7 | 5.2 | 0.00 | 0.00 | 0.00 | 62 | 1021.6 |
| 20260830195311 | 66 | 300 | 2.6 | 6.1 | 0.00 | 0.00 | 0.00 | 61 | 1021.6 |
| 20260830194725 | 66 | 236 | 2.6 | 6.1 | 0.00 | 0.00 | 0.00 | 62 | 1021.5 |
| 20260830194232 | 66 | 251 | 1.7 | 5.2 | 0.00 | 0.00 | 0.00 | 63 | 1021.7 |
| 20260830193739 | 66 | 261 | 2.6 | 6.1 | 0.00 | 0.00 | 0.00 | 63 | 1021.7 |
| 20260830193226 | 66 | 279 | 1.7 | 3.5 | 0.00 | 0.00 | 0.00 | 61 | 1021.7 |
| 20260830192733 | 66 | 234 | 0.9 | 2.6 | 0.00 | 0.00 | 0.00 | 61 | 1021.6 |
| 20260830192225 | 66 | 360 | 0.9 | 2.6 | 0.00 | 0.00 | 0.00 | 62 | 1021.6 |
| 20260830191731 | 66 | 105 | 0.0 | 3.5 | 0.00 | 0.00 | 0.00 | 62 | 1021.6 |
| 20260830191238 | 65 | 303 | 0.9 | 3.5 | 0.00 | 0.00 | 0.00 | 64 | 1021.6 |
| 20260830190725 | 65 | 327 | 0.9 | 3.5 | 0.00 | 0.00 | 0.00 | 63 | 1021.6 |
| 20260830190232 | 65 | 350 | 1.7 | 3.5 | 0.00 | 0.00 | 0.00 | 64 | 1021.4 |
| 20260830185739 | 64 | 107 | 0.9 | 2.6 | 0.00 | 0.00 | 0.00 | 66 | 1021.6 |
| 20260830185227 | 63 | 92 | 1.7 | 2.6 | 0.00 | 0.00 | 0.00 | 65 | 1021.7 |
| 20260830184733 | 63 | 108 | 0.9 | 5.2 | 0.00 | 0.00 | 0.00 | 66 | 1021.8 |
| 20260830184220 | 63 | 101 | 2.6 | 5.2 | 0.00 | 0.00 | 0.00 | 65 | 1021.7 |
| 20260830183807 | 63 | 169 | 0.9 | 5.2 | 0.00 | 0.00 | 0.00 | 64 | 1021.7 |
| 20260830183303 | 63 | 67 | 2.6 | 5.2 | 0.00 | 0.00 | 0.00 | 65 | 1021.6 |
| 20260830182738 | 63 | 102 | 0.9 | 5.2 | 0.00 | 0.00 | 0.00 | 65 | 1021.6 |
| 20260830182230 | 64 | 52 | 1.7 | 7.8 | 0.00 | 0.00 | 0.00 | 64 | 1021.7 |
| 20260830181756 | 64 | 95 | 3.5 | 7.8 | 0.00 | 0.00 | 0.00 | 63 | 1021.8 |
| 20260830181307 | 65 | 48 | 1.7 | 7.0 | 0.00 | 0.00 | 0.00 | 64 | 1021.8 |
| 20260830181235 | 65 | 48 | 1.7 | 7.0 | 0.00 | 0.00 | 0.00 | 64 | 1021.8 |
| 20260830180801 | 65 | 103 | 1.7 | 3.5 | 0.00 | 0.00 | 0.00 | 66 | 1021.8 |
| 20260830180729 | 65 | 103 | 1.7 | 3.5 | 0.00 | 0.00 | 0.00 | 66 | 1021.8 |
| 20260830180240 | 64 | 74 | 0.9 | 2.6 | 0.00 | 0.00 | 0.00 | 67 | 1021.7 |
| 20260830175726 | 62 | 42 | 0.0 | 1.7 | 0.00 | 0.00 | 0.00 | 69 | 1021.8 |
| 20260830175234 | 62 | 11 | 0.0 | 5.2 | 0.00 | 0.00 | 0.00 | 69 | 1021.8 |
| 20260830174800 | 62 | 277 | 0.9 | 5.2 | 0.00 | 0.00 | 0.00 | 68 | 1021.9 |
| 20260830174236 | 62 | 84 | 1.7 | 6.1 | 0.00 | 0.00 | 0.00 | 68 | 1021.8 |
| 20260830173723 | 62 | 164 | 0.9 | 4.3 | 0.00 | 0.00 | 0.00 | 69 | 1021.8 |
| 20260830173230 | 62 | 99 | 1.7 | 3.5 | 0.00 | 0.00 | 0.00 | 69 | 1021.7 |
| 20260830172757 | 62 | 94 | 1.7 | 7.0 | 0.00 | 0.00 | 0.00 | 71 | 1021.7 |
| 20260830172233 | 61 | 129 | 2.6 | 7.0 | 0.00 | 0.00 | 0.00 | 70 | 1021.7 |
| 20260830171800 | 61 | 117 | 0.9 | 1.7 | 0.00 | 0.00 | 0.00 | 71 | 1021.7 |
| 20260830171235 | 61 | 326 | 0.9 | 3.5 | 0.00 | 0.00 | 0.00 | 71 | 1021.7 |
| 20260830170722 | 61 | 171 | 1.7 | 4.3 | 0.00 | 0.00 | 0.00 | 70 | 1021.5 |
| 20260830170229 | 61 | 147 | 1.7 | 4.3 | 0.00 | 0.00 | 0.00 | 70 | 1021.5 |
| 20260830165720 | 61 | 88 | 0.9 | 3.5 | 0.00 | 0.00 | 0.00 | 71 | 1021.7 |
| 20260830165308 | 61 | 119 | 0.9 | 4.3 | 0.00 | 0.00 | 0.00 | 70 | 1021.6 |
| 20260830165236 | 61 | 119 | 0.9 | 4.3 | 0.00 | 0.00 | 0.00 | 70 | 1021.6 |
| 20260830164722 | 61 | 79 | 1.7 | 4.3 | 0.00 | 0.00 | 0.00 | 70 | 1021.6 |
| 20260830164229 | 60 | 194 | 1.7 | 5.2 | 0.00 | 0.00 | 0.00 | 71 | 1021.6 |
| 20260830163736 | 60 | 88 | 2.6 | 5.2 | 0.00 | 0.00 | 0.00 | 72 | 1021.6 |
| 20260830163223 | 60 | 198 | 0.9 | 3.5 | 0.00 | 0.00 | 0.00 | 72 | 1021.6 |
| 20260830162730 | 60 | 158 | 1.7 | 2.6 | 0.00 | 0.00 | 0.00 | 72 | 1021.7 |
| 20260830162238 | 60 | 34 | 0.9 | 2.6 | 0.00 | 0.00 | 0.00 | 74 | 1021.8 |
| 20260830161724 | 59 | 68 | 0.9 | 1.7 | 0.00 | 0.03 | 0.00 | 74 | 1021.7 |
| 20260830161231 | 59 | 28 | 0.9 | 1.7 | 0.00 | 0.03 | 0.00 | 74 | 1021.7 |
| 20260830160722 | 59 | 32 | 0.9 | 1.7 | 0.00 | 0.03 | 0.00 | 75 | 1021.8 |
| 20260830160229 | 59 | 163 | 0.9 | 3.5 | 0.00 | 0.03 | 0.00 | 75 | 1021.7 |
| 20260830155736 | 59 | 224 | 0.9 | 3.5 | 0.00 | 0.03 | 0.00 | 75 | 1021.8 |
| 20260830155224 | 59 | 84 | 0.9 | 3.5 | 0.00 | 0.03 | 0.00 | 75 | 1021.8 |
| 20260830154811 | 59 | 85 | 0.9 | 3.5 | 0.00 | 0.03 | 0.00 | 76 | 1021.7 |
| 20260830154225 | 58 | 99 | 0.9 | 1.7 | 0.00 | 0.03 | 0.00 | 76 | 1021.8 |
| 20260830153732 | 58 | 64 | 0.9 | 1.7 | 0.00 | 0.03 | 0.00 | 77 | 1021.6 |
| 20260830153239 | 58 | 258 | 0.0 | 3.5 | 0.00 | 0.03 | 0.00 | 77 | 1021.6 |
| 20260830152726 | 57 | 282 | 0.9 | 3.5 | 0.00 | 0.03 | 0.00 | 77 | 1021.5 |
| 20260830152234 | 57 | 33 | 0.9 | 2.6 | 0.00 | 0.03 | 0.00 | 79 | 1021.6 |
| 20260830151801 | 57 | 117 | 0.9 | 1.7 | 0.00 | 0.35 | 0.00 | 82 | 1021.5 |
| 20260830151236 | 56 | 120 | 0.0 | 1.7 | 0.00 | 0.35 | 0.00 | 83 | 1021.6 |
| 20260830150727 | 56 | 43 | 0.0 | 1.7 | 0.00 | 0.35 | 0.00 | 84 | 1021.6 |
| 20260830150234 | 55 | 101 | 0.0 | 0.9 | 0.00 | 0.35 | 0.00 | 85 | 1021.6 |
| 20260830145721 | 55 | 60 | 0.0 | 0.0 | 0.00 | 0.35 | 0.00 | 87 | 1021.6 |
| 20260830145229 | 55 | 60 | 0.0 | 0.0 | 0.00 | 0.35 | 0.00 | 88 | 1021.5 |
| 20260830144735 | 55 | 60 | 0.0 | 0.0 | 0.00 | 0.35 | 0.00 | 88 | 1021.5 |
| 20260830144303 | 54 | 60 | 0.0 | 0.0 | 0.00 | 0.35 | 0.00 | 88 | 1021.6 |
| 20260830143759 | 54 | 60 | 0.0 | 0.0 | 0.00 | 0.35 | 0.00 | 89 | 1021.6 |
| 20260830143727 | 54 | 60 | 0.0 | 0.0 | 0.00 | 0.35 | 0.00 | 89 | 1021.6 |
| 20260830143255 | 54 | 60 | 0.0 | 0.0 | 0.00 | 0.35 | 0.00 | 89 | 1021.5 |
| 20260830142730 | 54 | 60 | 0.0 | 0.0 | 0.00 | 0.35 | 0.00 | 89 | 1021.5 |
| 20260830142239 | 54 | 60 | 0.0 | 0.0 | 0.00 | 0.35 | 0.00 | 89 | 1021.4 |
| 20260830141725 | 54 | 60 | 0.0 | 0.0 | 0.00 | 0.77 | 0.00 | 89 | 1021.2 |
| 20260830141307 | 54 | 60 | 0.0 | 0.0 | 0.00 | 0.77 | 0.00 | 89 | 1021.2 |
| 20260830141235 | 54 | 60 | 0.0 | 0.0 | 0.00 | 0.77 | 0.00 | 89 | 1021.2 |
| 20260830140722 | 54 | 60 | 0.0 | 0.0 | 0.00 | 0.77 | 0.00 | 89 | 1021.2 |
| 20260830140309 | 54 | 60 | 0.0 | 0.0 | 0.00 | 0.77 | 0.00 | 89 | 1021.3 |
| 20260830140238 | 54 | 60 | 0.0 | 0.0 | 0.00 | 0.77 | 0.00 | 89 | 1021.3 |
| 20260830135724 | 54 | 60 | 0.0 | 0.0 | 0.00 | 0.77 | 0.00 | 89 | 1021.2 |
| 20260830135253 | 54 | 60 | 0.0 | 0.0 | 0.00 | 0.77 | 0.00 | 89 | 1021.2 |
| 20260830134727 | 54 | 60 | 0.0 | 0.0 | 0.00 | 0.77 | 0.00 | 89 | 1021.1 |
| 20260830134238 | 54 | 60 | 0.0 | 0.0 | 0.00 | 0.77 | 0.00 | 89 | 1021.1 |
| 20260830133725 | 54 | 60 | 0.0 | 0.0 | 0.00 | 0.77 | 0.00 | 89 | 1021.1 |
| 20260830133232 | 54 | 60 | 0.0 | 0.0 | 0.00 | 0.77 | 0.00 | 89 | 1021.1 |
| 20260830132739 | 54 | 60 | 0.0 | 0.0 | 0.00 | 0.77 | 0.00 | 89 | 1021.0 |
| 20260830132227 | 54 | 60 | 0.0 | 0.0 | 0.00 | 0.77 | 0.00 | 89 | 1021.0 |
| 20260830131728 | 54 | 60 | 0.0 | 0.0 | 0.00 | 0.77 | 0.00 | 89 | 1021.0 |
| 20260830131235 | 54 | 60 | 0.0 | 0.0 | 0.00 | 0.77 | 0.00 | 89 | 1021.0 |
| 20260830130722 | 54 | 60 | 0.0 | 0.0 | 0.00 | 0.77 | 0.00 | 88 | 1020.9 |
| 20260830130309 | 54 | 60 | 0.0 | 0.0 | 0.00 | 0.77 | 0.00 | 89 | 1020.9 |
| 20260830130237 | 54 | 60 | 0.0 | 0.0 | 0.00 | 0.77 | 0.00 | 89 | 1020.9 |
| 20260830125724 | 54 | 60 | 0.0 | 0.0 | 0.00 | 0.77 | 0.00 | 88 | 1020.9 |
| 20260830125232 | 54 | 60 | 0.0 | 0.0 | 0.00 | 0.77 | 0.00 | 88 | 1021.0 |
| 20260830124742 | 54 | 60 | 0.0 | 0.0 | 0.00 | 0.77 | 0.00 | 88 | 1021.1 |
| 20260830124224 | 54 | 60 | 0.0 | 0.0 | 0.00 | 0.77 | 0.00 | 88 | 1021.1 |
| 20260830123731 | 54 | 60 | 0.0 | 0.0 | 0.00 | 0.77 | 0.00 | 87 | 1021.1 |
| 20260830123238 | 54 | 60 | 0.0 | 0.0 | 0.00 | 0.77 | 0.00 | 88 | 1021.1 |
| 20260830122725 | 54 | 60 | 0.0 | 0.0 | 0.00 | 0.77 | 0.00 | 88 | 1021.1 |
| 20260830122235 | 54 | 60 | 0.0 | 0.0 | 0.00 | 0.77 | 0.00 | 88 | 1021.1 |
| 20260830121720 | 54 | 60 | 0.0 | 0.0 | 0.00 | 0.77 | 0.00 | 88 | 1021.2 |
| 20260830121308 | 54 | 60 | 0.0 | 0.0 | 0.00 | 0.77 | 0.00 | 88 | 1021.2 |
| 20260830120720 | 54 | 60 | 0.0 | 0.0 | 0.00 | 0.77 | 0.00 | 88 | 1021.2 |
| 20260830120307 | 54 | 60 | 0.0 | 0.0 | 0.00 | 0.77 | 0.00 | 88 | 1021.1 |
| 20260830115723 | 54 | 60 | 0.0 | 0.0 | 0.00 | 0.77 | 0.00 | 88 | 1021.2 |
| 20260830115231 | 54 | 60 | 0.0 | 0.0 | 0.00 | 0.77 | 0.00 | 89 | 1021.2 |
| 20260830114721 | 54 | 60 | 0.0 | 0.0 | 0.00 | 0.77 | 0.00 | 89 | 1021.1 |
| 20260830114228 | 54 | 60 | 0.0 | 0.0 | 0.00 | 0.77 | 0.00 | 89 | 1021.1 |
| 20260830113735 | 54 | 60 | 0.0 | 0.0 | 0.00 | 0.77 | 0.00 | 89 | 1021.1 |
| 20260830113222 | 54 | 60 | 0.0 | 0.0 | 0.00 | 0.77 | 0.00 | 89 | 1021.0 |
| 20260830112729 | 54 | 60 | 0.0 | 0.0 | 0.00 | 0.77 | 0.00 | 89 | 1021.0 |
| 20260830112238 | 54 | 60 | 0.0 | 0.0 | 0.00 | 0.77 | 0.00 | 89 | 1020.9 |
| 20260830111724 | 54 | 60 | 0.0 | 0.0 | 0.00 | 0.77 | 0.00 | 89 | 1020.9 |
| 20260830111231 | 54 | 60 | 0.0 | 0.0 | 0.00 | 0.77 | 0.00 | 89 | 1020.9 |
| 20260830110738 | 54 | 60 | 0.0 | 0.0 | 0.00 | 0.77 | 0.00 | 89 | 1020.9 |
| 20260830110229 | 54 | 60 | 0.0 | 0.9 | 0.00 | 0.77 | 0.00 | 89 | 1020.9 |
| 20260830105736 | 53 | 60 | 0.0 | 0.9 | 0.00 | 0.77 | 0.00 | 89 | 1020.9 |
| 20260830105259 | 53 | 60 | 0.0 | 0.9 | 0.00 | 0.77 | 0.00 | 90 | 1021.0 |
| 20260830104733 | 53 | 60 | 0.0 | 0.0 | 0.00 | 0.77 | 0.00 | 90 | 1020.9 |
| 20260830104220 | 53 | 60 | 0.0 | 0.0 | 0.00 | 0.77 | 0.00 | 90 | 1021.0 |
| 20260830103727 | 53 | 60 | 0.0 | 0.0 | 0.00 | 0.77 | 0.00 | 90 | 1020.9 |
| 20260830103313 | 53 | 60 | 0.0 | 0.0 | 0.00 | 0.77 | 0.00 | 90 | 1021.0 |
| 20260830103241 | 53 | 60 | 0.0 | 0.0 | 0.00 | 0.77 | 0.00 | 90 | 1021.0 |
| 20260830102722 | 53 | 60 | 0.0 | 0.0 | 0.00 | 0.77 | 0.00 | 90 | 1021.0 |
| 20260830102230 | 53 | 60 | 0.0 | 0.0 | 0.00 | 0.77 | 0.00 | 90 | 1021.0 |
| 20260830101736 | 53 | 60 | 0.0 | 0.0 | 0.00 | 0.77 | 0.00 | 89 | 1021.0 |
| 20260830101303 | 53 | 60 | 0.0 | 0.0 | 0.00 | 0.77 | 0.00 | 89 | 1020.9 |
| 20260830101232 | 53 | 60 | 0.0 | 0.0 | 0.00 | 0.77 | 0.00 | 89 | 1020.9 |
| 20260830100739 | 53 | 60 | 0.0 | 0.0 | 0.00 | 0.77 | 0.00 | 89 | 1020.9 |
| 20260830100226 | 53 | 60 | 0.0 | 0.0 | 0.00 | 0.77 | 0.00 | 89 | 1020.9 |
| 20260830095754 | 53 | 60 | 0.0 | 0.0 | 0.00 | 0.77 | 0.00 | 89 | 1020.8 |
| 20260830095230 | 53 | 60 | 0.0 | 0.0 | 0.00 | 0.77 | 0.00 | 89 | 1020.8 |
| 20260830094721 | 53 | 60 | 0.0 | 0.0 | 0.00 | 0.77 | 0.00 | 89 | 1020.8 |
| 20260830094227 | 53 | 60 | 0.0 | 0.0 | 0.00 | 0.77 | 0.00 | 89 | 1020.9 |
| 20260830093734 | 53 | 60 | 0.0 | 0.0 | 0.00 | 0.77 | 0.00 | 89 | 1020.8 |
| 20260830093221 | 53 | 60 | 0.0 | 1.7 | 0.00 | 0.77 | 0.00 | 89 | 1020.8 |
| 20260830092808 | 53 | 60 | 0.0 | 1.7 | 0.00 | 0.77 | 0.00 | 90 | 1020.8 |
| 20260830092736 | 53 | 60 | 0.0 | 1.7 | 0.00 | 0.77 | 0.00 | 90 | 1020.8 |
| 20260830092224 | 53 | 60 | 0.0 | 1.7 | 0.00 | 0.77 | 0.00 | 90 | 1020.7 |
| 20260830091730 | 53 | 60 | 0.0 | 1.7 | 0.00 | 0.77 | 0.00 | 90 | 1020.9 |
| 20260830091237 | 52 | 60 | 0.0 | 1.7 | 0.00 | 0.77 | 0.00 | 90 | 1020.9 |
| 20260830090724 | 52 | 60 | 0.0 | 0.0 | 0.00 | 0.77 | 0.00 | 90 | 1021.0 |
| 20260830090231 | 52 | 60 | 0.0 | 0.0 | 0.00 | 0.77 | 0.00 | 90 | 1021.0 |
| 20260830085758 | 52 | 60 | 0.0 | 0.0 | 0.00 | 0.77 | 0.00 | 90 | 1021.1 |
| 20260830085256 | 52 | 60 | 0.0 | 0.0 | 0.00 | 0.77 | 0.00 | 90 | 1020.9 |
| 20260830084730 | 52 | 60 | 0.0 | 0.0 | 0.00 | 0.77 | 0.00 | 90 | 1021.0 |
| 20260830084221 | 52 | 60 | 0.0 | 0.0 | 0.00 | 0.77 | 0.00 | 90 | 1020.9 |
| 20260830083809 | 52 | 60 | 0.0 | 0.0 | 0.00 | 0.77 | 0.00 | 90 | 1020.8 |
| 20260830083224 | 52 | 60 | 0.0 | 0.0 | 0.00 | 0.77 | 0.00 | 89 | 1020.8 |
| 20260830082731 | 52 | 60 | 0.0 | 0.0 | 0.00 | 0.77 | 0.00 | 89 | 1020.8 |
| 20260830081724 | 52 | 60 | 0.0 | 0.0 | 0.00 | 0.77 | 0.77 | 89 | 1020.9 |
| 20260830081251 | 52 | 60 | 0.0 | 0.0 | 0.00 | 0.77 | 0.77 | 88 | 1020.8 |
| 20260830080808 | 52 | 60 | 0.0 | 0.0 | 0.00 | 0.77 | 0.77 | 88 | 1020.8 |
| 20260830080224 | 53 | 60 | 0.0 | 0.0 | 0.00 | 0.77 | 0.77 | 87 | 1020.8 |
| 20260830075731 | 53 | 60 | 0.0 | 0.0 | 0.00 | 0.77 | 0.77 | 87 | 1020.8 |
| 20260830075259 | 53 | 60 | 0.0 | 1.7 | 0.00 | 0.77 | 0.77 | 87 | 1020.7 |
| 20260830075228 | 53 | 60 | 0.0 | 1.7 | 0.00 | 0.77 | 0.77 | 87 | 1020.7 |
| 20260830074731 | 53 | 60 | 0.0 | 0.9 | 0.00 | 0.77 | 0.77 | 87 | 1020.9 |
| 20260830074238 | 53 | 60 | 0.0 | 0.0 | 0.00 | 0.77 | 0.77 | 87 | 1020.9 |
| 20260830073725 | 53 | 60 | 0.0 | 0.0 | 0.00 | 0.77 | 0.77 | 86 | 1020.9 |
| 20260830073231 | 54 | 60 | 0.0 | 0.0 | 0.00 | 0.77 | 0.77 | 86 | 1020.9 |
| 20260830072758 | 54 | 60 | 0.0 | 0.0 | 0.00 | 0.77 | 0.77 | 86 | 1020.7 |
| 20260830072726 | 54 | 60 | 0.0 | 0.0 | 0.00 | 0.77 | 0.77 | 86 | 1020.7 |
| 20260830072234 | 54 | 60 | 0.0 | 0.0 | 0.00 | 0.77 | 0.77 | 86 | 1020.7 |
| 20260830071801 | 54 | 60 | 0.0 | 0.0 | 0.00 | 0.77 | 0.77 | 85 | 1020.6 |
| 20260830071236 | 54 | 60 | 0.0 | 0.0 | 0.00 | 0.77 | 0.77 | 85 | 1020.7 |
| 20260830070724 | 55 | 60 | 0.0 | 0.0 | 0.00 | 0.77 | 0.77 | 84 | 1020.7 |
| 20260830070310 | 55 | 60 | 0.0 | 0.0 | 0.00 | 0.77 | 0.77 | 84 | 1020.6 |
| 20260830070239 | 55 | 60 | 0.0 | 0.0 | 0.00 | 0.77 | 0.77 | 84 | 1020.6 |
| 20260830065725 | 55 | 60 | 0.0 | 0.0 | 0.00 | 0.77 | 0.77 | 84 | 1020.6 |
| 20260830065233 | 55 | 60 | 0.0 | 0.0 | 0.00 | 0.77 | 0.77 | 84 | 1020.6 |
| 20260830064739 | 55 | 60 | 0.0 | 1.7 | 0.00 | 0.77 | 0.77 | 83 | 1020.6 |
| 20260830064306 | 55 | 60 | 0.0 | 1.7 | 0.00 | 0.77 | 0.77 | 82 | 1020.5 |
| 20260830064234 | 55 | 60 | 0.0 | 1.7 | 0.00 | 0.77 | 0.77 | 82 | 1020.5 |
| 20260830063802 | 55 | 60 | 0.0 | 0.0 | 0.00 | 0.77 | 0.77 | 82 | 1020.6 |
| 20260830063258 | 56 | 60 | 0.0 | 0.0 | 0.00 | 0.77 | 0.77 | 82 | 1020.6 |
| 20260830062753 | 56 | 60 | 0.0 | 0.0 | 0.00 | 0.77 | 0.77 | 82 | 1020.5 |
| 20260830062229 | 56 | 60 | 0.0 | 0.0 | 0.00 | 0.77 | 0.77 | 81 | 1020.5 |
| 20260830061735 | 56 | 60 | 0.0 | 1.7 | 0.00 | 0.77 | 0.77 | 81 | 1020.5 |
| 20260830061222 | 56 | 60 | 0.0 | 1.7 | 0.00 | 0.77 | 0.77 | 81 | 1020.4 |
| 20260830060729 | 56 | 60 | 0.0 | 0.0 | 0.00 | 0.77 | 0.77 | 80 | 1020.4 |
| 20260830060220 | 57 | 60 | 0.0 | 0.0 | 0.00 | 0.77 | 0.77 | 79 | 1020.5 |
| 20260830055727 | 57 | 60 | 0.0 | 0.0 | 0.00 | 0.77 | 0.77 | 80 | 1020.5 |
| 20260830055235 | 57 | 60 | 0.0 | 0.0 | 0.00 | 0.77 | 0.77 | 79 | 1020.5 |
| 20260830054721 | 57 | 60 | 0.0 | 1.7 | 0.00 | 0.77 | 0.77 | 77 | 1020.4 |
| 20260830054228 | 58 | 60 | 0.0 | 1.7 | 0.00 | 0.77 | 0.77 | 77 | 1020.3 |